Terminal Aerodrome Forecast
Issued by NWS Omaha/Valley, NE

Home | Current Version | Previous Version | Graphics & Text | Print | Product List | Glossary On
Versions: 1 2 3 4 5 6 7 8 9 10 11 12 13 14 15 16 17 18 19 20 21 22 23 24 25 26 27 28 29 30 31 32
000
FTUS43 KOAX 091237 AAA
TAFOFK
TAF AMD
KOFK 091237Z 0913/1012 VRB03KT P6SM SCT100
     FM091400 24006KT P6SM SCT050 BKN100
     FM091800 21006KT P6SM BKN070 PROB30 0922/1001 6SM -TSRA
      BKN050CB
     FM100200 14005KT P6SM BKN070=

USA.gov is the U.S. government's official web portal to all federal, state and local government web resources and services.